Theta_e
353 359 354 358 353 351 350 349 346 340 348 343 338 344 343 348 355 349 346 351 347 353 354 356 359 359 348 354 359 355 354 353 354 354 355 355 352 350 351 350 349 349
350 349 353 355 354 355 355 353 351 350 348 349 345 343 342 343 337 344 344 344 346 344 352 348 350 354 353 349 355 351 351 349 348 348 350 351 350 352 350 348 347 348
349 350 349 345 350 347 345 351 353 351 346 339 340 346 337 348 341 348 345 345 343 341 348 348 348 349 346 350 355 349 341 352 348 344 349 349 348 347 347 346 347 346
347 348 347 348 347 345 351 353 349 352 350 351 339 335 338 340 342 340 346 347 344 344 343 346 348 346 347 348 354 351 347 353 346 353 350 348 346 346 346 345 343 343
349 350 348 348 349 349 351 348 343 340 340 344 337 343 344 346 346 340 341 341 350 345 349 348 344 343 347 348 348 346 346 342 345 351 352 350 349 347 350 349 349 346
348 348 348 346 350 348 347 341 342 341 337 336 337 338 340 342 340 346 348 347 344 343 340 339 340 341 345 347 346 347 344 341 341 347 345 346 345 345 346 347 346 343
345 348 345 346 347 345 344 340 346 342 338 336 349 341 345 345 343 347 347 348 346 342 341 342 347 346 346 347 348 349 349 348 346 347 348 343 344 343 342 342 344 345
345 347 351 353 344 346 344 339 336 344 343 341 338 349 350 345 344 338 341 342 341 343 345 346 347 351 347 344 343 344 345 341 340 343 346 345 346 345 345 344 343 344
350 348 348 344 345 344 340 338 339 344 343 340 345 343 346 344 340 341 344 344 343 346 345 342 349 347 346 346 345 344 342 339 341 342 342 339 338 340 340 341 342 343
349 349 344 347 345 348 345 343 343 348 348 346 349 345 338 341 343 343 346 349 347 344 343 350 346 347 347 346 344 344 343 343 343 343 340 340 340 340 340 343 344 343
346 349 347 346 346 346 345 349 346 349 350 346 342 342 349 347 349 349 348 346 339 338 343 343 342 345 344 344 345 344 344 343 343 343 340 340 340 341 343 343 343 342
346 345 345 346 345 344 343 347 348 350 348 347 347 347 348 346 348 348 345 345 341 344 344 344 347 347 346 345 344 345 343 343 343 344 342 341 341 343 343 343 342 341
345 345 350 346 345 348 349 351 349 348 349 348 348 347 344 344 347 346 346 343 345 345 345 345 345 344 346 345 345 345 345 344 342 342 343 342 342 341 341 342 342 343
346 345 350 349 349 351 350 348 350 349 349 350 350 348 346 344 342 341 342 343 343 345 346 347 346 345 344 343 343 344 343 344 345 344 344 340 338 338 337 338 340 341
348 348 349 347 347 347 348 348 349 350 350 350 349 348 346 347 346 346 345 343 342 344 344 344 342 342 342 341 341 343 345 342 341 340 339 338 337 336 337 338 340 341
346 347 347 350 347 348 349 349 349 350 349 349 348 348 348 349 348 347 346 344 344 345 344 343 342 343 343 346 344 340 342 341 340 340 340 339 337 335 334 336 337 338
350 347 346 346 348 349 349 349 349 348 348 348 347 346 348 348 347 346 344 345 345 344 343 342 342 341 344 340 341 343 342 343 342 340 340 338 336 334 332 333 333 335
347 346 346 347 348 348 349 349 348 348 347 347 345 344 346 345 343 343 343 343 342 343 342 341 340 342 337 337 342 343 340 341 339 336 336 336 335 333 332 331 332 333
347 346 345 347 347 349 348 348 348 346 346 346 343 343 344 344 344 343 341 340 339 340 339 338 338 341 335 337 337 338 340 338 337 337 336 334 334 333 333 333 333 333
346 345 345 346 347 347 348 348 346 345 345 347 345 344 343 342 341 341 340 341 340 340 340 339 339 341 335 336 335 336 337 340 336 336 336 334 335 334 333 333 334 334
345 345 344 345 347 347 346 345 345 345 346 346 345 344 342 341 340 339 339 339 339 339 337 335 336 334 332 334 332 332 334 340 336 336 335 335 335 334 334 334 334 335
344 344 345 345 345 346 344 344 344 344 343 344 344 343 343 341 339 338 336 336 336 335 335 334 336 331 330 330 329 329 334 337 336 335 334 333 333 334 334 335 336 337
344 343 343 344 344 343 343 343 342 343 343 344 342 341 339 336 336 335 336 336 337 337 335 334 334 332 328 328 327 328 334 336 335 334 334 333 333 334 335 336 336 336
344 345 344 343 343 343 342 343 344 344 343 342 340 338 336 337 336 335 337 337 335 333 332 333 332 333 326 325 326 327 335 334 334 334 332 332 332 334 335 335 336 338
346 344 344 342 341 342 341 341 342 341 341 342 340 338 336 336 334 332 332 335 336 336 336 335 333 333 327 327 326 326 333 335 335 334 331 331 331 331 333 334 334 336
347 343 343 342 342 342 343 343 342 341 340 338 338 334 332 333 335 332 333 333 335 336 335 335 335 335 335 325 325 325 327 335 334 332 330 330 330 330 330 331 332 334
Wind_Speed
3 1 3 2 3 3 2 3 3 5 3 3 3 2 2 2 3 2 3 2 4 2 2 2 2 2 4 3 3 3 3 4 5 5 4 3 4 5 5 6 6 6
3 3 2 2 3 3 3 3 1 3 2 4 3 3 4 1 3 5 5 4 3 4 5 5 4 4 3 3 3 3 4 4 5 4 4 5 4 4 5 6 6 6
2 4 4 2 1 3 2 2 2 3 3 3 4 4 5 2 7 3 4 4 5 7 5 4 4 4 5 3 3 3 5 3 4 5 5 5 5 7 6 7 6 8
4 1 1 3 1 1 2 3 2 4 3 1 4 5 2 5 6 7 5 7 4 4 4 3 4 4 3 3 3 4 4 4 5 3 4 4 5 5 5 6 7 8
4 3 2 2 2 1 2 3 4 4 6 2 4 6 5 4 3 6 4 3 2 3 2 3 5 7 7 6 6 5 5 6 5 4 4 4 5 5 4 4 5 6
6 3 3 0 3 1 2 4 4 2 2 5 8 6 5 4 4 2 2 3 4 3 6 7 9 7 6 5 5 4 5 6 6 5 5 5 5 5 5 5 5 7
5 5 3 2 3 2 1 1 4 1 5 6 3 2 2 4 4 4 5 4 2 5 6 6 4 4 4 4 3 4 4 4 6 5 5 5 5 6 7 7 6 6
5 3 2 2 0 2 3 4 4 3 2 1 3 3 3 3 3 6 4 5 5 6 5 4 4 3 3 5 5 5 5 6 7 5 5 5 4 5 6 6 6 6
2 2 2 0 1 2 4 5 6 4 3 4 4 3 3 3 5 8 7 7 6 4 5 6 3 3 3 3 4 5 6 8 7 7 7 8 8 7 7 6 7 6
3 3 0 1 1 1 4 2 2 3 3 3 2 3 6 4 6 6 6 5 4 6 5 2 3 3 3 3 4 4 5 6 6 7 8 9 9 10 9 7 6 7
2 2 1 1 3 3 4 4 2 1 1 2 4 5 4 4 3 4 4 4 7 8 5 5 4 3 4 4 4 4 5 6 6 6 7 8 9 9 9 8 8 8
1 1 1 3 3 3 4 2 3 4 3 3 3 5 5 5 4 3 4 5 7 7 6 5 4 3 3 4 4 4 5 5 5 5 6 6 7 7 7 7 8 9
1 2 2 3 3 3 3 2 3 3 4 4 4 4 5 5 5 5 5 6 6 6 5 6 6 6 5 5 6 5 5 5 6 6 5 4 5 7 8 8 9 8
2 1 2 2 2 2 3 3 3 3 3 3 3 4 4 6 6 7 6 5 5 5 5 4 5 5 6 7 7 6 6 5 4 3 3 4 5 7 8 9 9 10
1 1 1 1 1 2 3 3 3 3 3 3 3 4 4 4 4 5 5 7 7 6 6 6 6 6 6 6 6 5 3 4 5 5 5 5 6 7 8 8 9 9
0 0 1 1 2 3 3 3 3 3 3 3 4 4 4 4 4 5 5 6 6 6 6 6 6 4 8 13 14 8 4 4 5 5 5 4 6 7 8 8 9 9
1 2 1 2 2 3 3 3 4 3 3 3 4 4 4 4 4 6 6 5 6 6 6 6 5 5 11 14 12 11 6 4 4 4 4 5 6 7 7 9 9 9
2 2 2 2 3 3 3 3 3 3 4 4 4 5 4 5 5 6 6 6 6 6 6 6 7 9 10 3 2 4 6 4 4 4 5 5 6 7 7 7 9 10
2 2 2 3 3 3 3 3 3 4 4 4 5 5 5 5 5 6 6 7 7 7 7 7 7 9 11 10 6 7 8 8 5 5 6 6 6 7 8 8 8 9
2 2 3 2 3 3 3 4 4 4 4 4 4 5 5 5 7 7 6 6 6 7 6 6 7 9 10 8 6 8 9 8 6 6 6 7 7 7 7 8 9 9
2 2 2 3 3 3 3 3 4 4 4 4 4 5 5 5 6 6 6 6 7 7 7 8 7 10 10 8 6 7 8 8 6 6 6 7 7 8 8 9 10 10
2 2 2 3 3 3 3 3 4 4 4 4 4 5 5 5 5 6 6 7 7 8 7 8 7 9 10 9 6 5 6 5 6 6 7 8 8 8 8 8 8 9
1 2 3 3 3 3 3 4 4 4 4 4 4 5 6 6 6 7 7 7 7 6 7 7 7 9 11 11 6 6 4 4 6 7 7 8 8 8 8 8 8 9
1 2 3 3 3 3 4 4 4 3 4 4 5 5 6 6 6 6 6 6 7 8 8 8 8 9 11 8 3 2 4 4 6 6 7 8 8 8 8 8 10 15
2 2 2 2 3 3 3 4 3 4 4 4 4 5 5 5 6 7 7 7 7 8 12 11 9 10 11 8 3 2 4 5 6 6 7 7 7 8 7 8 8 10
1 1 2 2 3 3 3 3 3 4 4 4 4 4 5 5 6 6 7 8 7 8 8 8 9 9 10 10 0 5 6 5 6 7 8 7 7 7 8 8 8 7
Wind_Direction
118 24 106 154 41 20 344 346 334 344 10 332 292 334 311 345 81 224 257 339 11 341 313 319 280 259 298 316 3 337 325 326 328 316 301 278 268 281 286 276 268 260
91 76 359 46 160 189 219 218 358 336 313 258 261 340 353 314 284 27 28 15 348 337 23 356 347 341 329 325 314 292 277 264 276 283 287 292 287 267 260 272 277 280
97 151 162 208 5 19 26 5 239 236 282 328 313 252 273 354 29 27 28 10 14 4 4 5 343 336 324 312 321 321 303 309 310 310 320 326 322 310 301 297 294 290
146 128 84 127 189 10 21 305 273 235 244 19 343 329 334 22 25 21 14 17 5 351 323 319 288 275 293 314 331 321 320 321 314 291 265 262 265 278 289 296 292 297
98 90 86 62 26 162 263 253 285 10 2 347 327 3 34 51 30 14 2 323 337 282 308 310 346 359 7 5 358 339 330 316 305 314 339 331 321 305 290 285 285 286
147 160 139 225 140 39 312 340 352 307 246 279 56 338 13 16 17 338 297 315 285 352 356 5 5 350 349 340 323 305 299 299 303 309 305 301 300 289 285 283 288 287
157 152 135 98 31 33 314 271 241 306 328 355 42 35 345 26 330 295 254 239 331 9 13 359 338 323 314 299 306 314 318 318 312 306 303 299 295 301 301 300 299 299
40 70 91 94 193 280 298 284 308 15 357 316 325 13 3 316 282 291 342 39 23 18 347 325 288 272 325 347 332 325 318 309 300 299 306 311 306 294 296 291 288 282
58 44 92 107 35 312 301 334 354 20 356 350 8 345 294 300 338 349 359 6 16 338 294 276 298 351 344 325 320 319 313 311 316 323 312 302 298 294 295 300 295 294
151 164 151 44 257 298 291 301 291 341 358 347 308 297 304 325 2 351 343 335 317 277 280 354 350 333 333 320 319 313 314 314 312 310 310 308 308 307 303 301 301 308
178 94 23 340 308 296 305 317 320 298 305 317 324 323 351 337 345 339 308 301 299 309 328 321 316 310 303 306 307 315 313 308 304 307 304 302 297 296 300 302 305 300
303 338 262 285 292 292 308 342 345 346 338 325 340 345 335 331 322 299 308 297 292 292 294 295 290 292 295 294 290 288 284 282 279 279 286 293 299 305 307 303 298 296
214 218 239 278 301 341 349 341 339 345 343 341 338 313 300 294 296 270 241 253 258 280 320 324 317 314 296 272 261 258 259 268 277 275 280 306 316 315 315 310 303 297
226 283 351 346 350 354 339 335 335 320 309 309 300 294 290 289 289 299 308 306 305 290 283 289 286 291 293 289 276 259 255 254 262 283 320 317 316 313 307 303 299 298
122 303 224 258 289 306 314 300 301 292 289 285 282 280 287 284 285 286 289 284 287 287 286 282 279 272 277 282 287 291 295 301 295 292 292 290 291 294 295 294 293 289
165 187 324 324 315 311 302 291 282 290 291 287 282 285 283 280 277 277 274 274 275 275 270 269 274 282 287 286 283 290 280 267 268 271 279 283 286 291 289 289 292 291
168 224 273 287 308 292 286 289 288 284 286 285 289 283 282 281 276 269 269 271 279 286 289 288 287 291 280 270 281 285 282 287 292 292 286 281 283 286 294 295 292 291
199 251 259 291 297 289 287 288 291 286 281 285 288 293 288 291 292 298 298 295 290 286 287 286 284 280 279 297 260 235 244 251 260 272 276 282 285 285 286 291 294 297
208 241 275 296 301 305 304 303 297 292 293 299 302 306 309 300 301 300 296 294 289 286 289 299 306 309 308 292 255 214 219 238 250 253 265 279 287 287 287 284 281 282
214 233 285 293 302 297 295 296 297 301 305 305 307 308 304 301 293 291 297 301 308 308 309 303 297 298 304 311 258 230 223 225 247 257 267 275 280 290 291 289 285 280
210 266 293 308 297 293 299 298 303 307 306 311 305 297 295 299 304 305 307 310 312 313 310 306 305 311 320 326 292 256 253 247 271 281 288 288 285 284 283 278 279 282
257 280 296 291 289 295 301 306 310 304 304 309 303 296 295 300 308 312 310 310 306 302 299 299 307 330 343 353 335 284 260 252 260 268 276 283 286 287 286 285 283 285
241 288 285 286 300 306 308 310 306 312 310 319 315 318 317 312 311 313 305 292 297 314 323 327 324 329 324 324 337 297 279 279 287 290 294 299 298 294 292 292 295 297
280 284 286 300 311 314 319 313 320 320 325 343 321 318 313 320 310 306 324 334 333 327 325 319 311 303 301 312 331 227 239 288 296 296 297 293 292 291 290 289 286 288
250 251 282 305 316 316 317 317 326 338 323 311 314 318 315 316 336 336 327 327 327 323 318 313 309 311 307 303 252 218 240 297 290 293 295 292 298 299 299 299 296 295
202 269 311 326 324 318 319 330 340 316 314 325 320 332 337 334 327 316 312 308 307 307 305 304 307 309 317 342 191 254 247 272 292 292 295 296 293 294 296 291 291 292